[TLELIST] Archives

 

[list_settings.list_name] Current TLEs

March 8th 2009 PST

HST 1 20580U 90037B 09065.48772070 .00000304 00000-0 10617-4 0 3416 2 20580 028.4694 052.3284 0003658 288.8040 071.2146 15.00460602834411 ISS (ZARYA) 1 25544U 98067A 09065.55508613 .00009116 00000-0 74775-4 0 4045 2 25544 051.6404 112.6725 0009603 094.2088 041.0939 15.71304440589800 CXO 1 25867U 99040B 09066.00000000 +.00000054 +00000-0 +10000-3 0 03022 2 25867 064.9900 072.6194 7327426 276.5388 357.2991 00.37800396004621 ____________________________________________________________________ These 2-Line ...Continue Reading

[list_settings.list_name] Current TLEs

March 7th 2009 PST

HST 1 20580U 90037B 09064.42347310 .00000325 00000-0 12228-4 0 3406 2 20580 028.4696 059.2685 0003599 275.8625 084.1555 15.00460534834256 ISS (ZARYA) 1 25544U 98067A 09064.66571322 .00008711 00000-0 71718-4 0 3989 2 25544 051.6402 117.2204 0009690 090.7880 050.2403 15.71285410589665 CXO 1 25867U 99040B 09063.37500000 +.00000060 +00000-0 +10000-3 0 03010 2 25867 064.9843 072.6915 7321310 276.6018 359.8519 00.37798075004618 ____________________________________________________________________ These 2-Line ...Continue Reading

[list_settings.list_name] Current TLEs

March 6th 2009 PST

HST 1 20580U 90037B 09062.42800994 +.00000345 +00000-0 +13785-4 0 03452 2 20580 028.4694 072.2836 0003663 254.3841 105.6346 15.00460047833953 ISS (ZARYA) 1 25544U 98067A 09064.15133073 .00008822 00000-0 72596-4 0 3933 2 25544 051.6401 119.8492 0009630 088.8477 020.5641 15.71276286589581 CXO 1 25867U 99040B 09063.37500000 +.00000060 +00000-0 +10000-3 0 03010 2 25867 064.9843 072.6915 7321310 276.6018 359.8519 00.37798075004618 ____________________________________________________________________ These 2-Line ...Continue Reading

[list_settings.list_name] Current TLEs

March 5th 2009 PST

HST 1 20580U 90037B 09063.22619505 .00000342 00000-0 13616-4 0 3390 2 20580 028.4693 067.0778 0003628 263.1891 096.8284 15.00460303834074 ISS (ZARYA) 1 25544U 98067A 09061.90383102 +.00012122 +00000-0 +98058-4 0 03796 2 25544 051.6401 131.3449 0009795 080.5904 267.2655 15.71244661589226 CXO 1 25867U 99040B 09058.04166667 +.00000203 +00000-0 +10000-3 0 02990 2 25867 064.9479 072.9173 7317728 276.6174 353.7993 00.37808982004598 ____________________________________________________________________ These 2-Line ...Continue Reading

[list_settings.list_name] Current TLEs

March 4th 2009 PST

HST 1 20580U 90037B 09060.43254871 +.00000331 +00000-0 +12722-4 0 03442 2 20580 028.4692 085.3073 0003782 232.7184 127.3061 15.00459225833659 ISS (ZARYA) 1 25544U 98067A 09062.31002558 .00010991 00000-0 89353-4 0 3829 2 25544 051.6402 129.2662 0009744 082.8723 044.1430 15.71248579589290 CXO 1 25867U 99040B 09058.04166667 +.00000203 +00000-0 +10000-3 0 02990 2 25867 064.9479 072.9173 7317728 276.6174 353.7993 00.37808982004598 ____________________________________________________________________ These 2-Line ...Continue Reading

[list_settings.list_name] Current TLEs

March 3rd 2009 PST

HST 1 20580U 90037B 09061.43028003 .00000344 00000-0 13739-4 0 3385 2 20580 028.4693 078.8004 0003755 243.1590 116.8619 15.00459665833805 ISS (ZARYA) 1 25544U 98067A 09060.77830059 .00013347 00000-0 10758-3 0 3721 2 25544 051.6403 137.1013 0009636 077.0380 020.0678 15.71221215589053 CXO 1 25867U 99040B 09058.04166667 +.00000203 +00000-0 +10000-3 0 02990 2 25867 064.9479 072.9173 7317728 276.6174 353.7993 00.37808982004598 ____________________________________________________________________ These 2-Line ...Continue Reading

[list_settings.list_name] Current TLEs

March 2nd 2009 PST

HST 1 20580U 90037B 09058.50360192 .00000307 00000-0 10870-4 0 3367 2 20580 028.4692 097.8919 0003863 214.8556 145.1785 15.00458424833369 ISS (ZARYA) 1 25544U 98067A 09059.52201389 .00012647 00000-0 10235-3 0 3632 2 25544 051.6403 143.5254 0009605 072.9181 113.4289 15.71184241588859 CXO 1 25867U 99040B 09058.04166667 +.00000203 +00000-0 +10000-3 0 02990 2 25867 064.9479 072.9173 7317728 276.6174 353.7993 00.37808982004598 ____________________________________________________________________ These 2-Line ...Continue Reading

[list_settings.list_name] Current TLEs

March 1st 2009 PST

HST 1 20580U 90037B 09058.50360192 .00000307 00000-0 10870-4 0 3367 2 20580 028.4692 097.8919 0003863 214.8556 145.1785 15.00458424833369 ISS (ZARYA) 1 25544U 98067A 09058.57265046 .00011632 00000-0 94654-4 0 3569 2 25544 051.6400 148.3798 0009591 069.7598 143.1583 15.71155014588709 CXO 1 25867U 99040B 09058.04166667 +.00000203 +00000-0 +10000-3 0 02990 2 25867 064.9479 072.9173 7317728 276.6174 353.7993 00.37808982004598 ____________________________________________________________________ These 2-Line ...Continue Reading

[list_settings.list_name] Current TLEs

February 28th 2009 PST

HST 1 20580U 90037B 09056.50813846 +.00000269 +00000-0 +79212-5 0 03413 2 20580 028.4693 110.9055 0003925 194.9821 165.0650 15.00457701833066 ISS (ZARYA) 1 25544U 98067A 09057.73234905 .00011144 00000-0 90973-4 0 3508 2 25544 051.6401 152.6768 0009530 067.2818 069.5881 15.71132499588575 CXO 1 25867U 99040B 09 55.53303294 .00000000 00000-0 10000-3 0 3008 2 25867 064.9331 072.9667 7313405 276.5908 012.4372 00.37817468 4583 ____________________________________________________________________ These 2-Line ...Continue Reading

[list_settings.list_name] Current TLEs

February 27th 2009 PST

HST 1 20580U 90037B 09055.51040645 +.00000276 +00000-0 +84439-5 0 03417 2 20580 028.4694 117.4130 0003942 185.3425 174.7123 15.00457550832913 ISS (ZARYA) 1 25544U 98067A 09056.90004753 .00010325 00000-0 84727-4 0 3445 2 25544 051.6400 156.9317 0009475 065.2902 040.8761 15.71109966588449 CXO 1 25867U 99040B 09055.41666667 +.00000122 +00000-0 +10000-3 0 02982 2 25867 064.9321 073.0026 7313921 276.6099 356.5064 00.37807215004587 ____________________________________________________________________ These 2-Line ...Continue Reading
  • This mailing list is a public mailing list - anyone may join or leave, at any time.
  • This mailing list is announce-only.

International Space Station (ISS) / Hubble Space Telescope (HST) / Chandra X-Ray Observatory Orbital Data via EMAIL

Privacy Policy:

Private list